JAS-2 (FO-29)

Last updated on Wed Sep 09 2026 00:03:15 GMT+0000 (Coordinated Universal Time)

1 24278U 96046B 26251.48547388 -.00000014 00000+0 23669-4 0 9996 2 24278 98.5174 88.9384 0348966 240.1880 116.4141 13.53277783484435
UTC large
Height (km)
Speed (km/s)
/
Latitude / Longitude
Inclination (degrees)
Orbital Period (minutes)
Azimuth
Elevation
Range (km)
Doppler Factor

Next 0 passes for location: London (51.5072 / 0.1276)

No passes found over London.